CORVUS BC4

Satellite information

Favourite Embed

Satellite Type and Status

PAYLOADIN ORBIT

Key statistics

Satellite CORVUS BC4 at a glance.

Uptime

2568

Days in orbit

Revolutions

≈ 15.1

Per day

Orbit

SSO

Sun Synchronous Orbit

Inclination

97.4

Latest

Satellite identification and parameters

Extended collection of information and parameters for CORVUS BC4.

Object identification

Identified? True

Debris? False

Object name: CORVUS BC4

International designator: 2018-099K

Object number (NORAD): 43767

Object ID (CCSDS): 43767

Country: UNITED STATES OF AMERICA (US)

Current information (Y/N): Y

RCS size: SMALL

Orbital parameters

Period: 95.33 minutes

Inclination: 97.4356 deg

SMA: 6912.694 km

Apoapsis: 539.416 km

Periapsis: 529.703 km

RAAN: 29.5217 deg

Eccentricy: 0.00070259

Argument of periapsis: 291.1909 deg

Mean anomaly: 68.857 deg

Mean motion: 15.10538254 rev/day

Mean motion (dot): 0.00007959 rev/day2

B* drag term: 0.00048601233 1/REarth

Two-line elements (TLE)

Creation date: Dec. 12, 2025, 10:14 a.m.

Reference frame: TEME

Reference center: EARTH

Epoch: Dec. 12, 2025, 2:47 a.m. UTC

TLE line 0: 0 CORVUS BC4

TLE line 1: 1 43767U 18099K 25346.11662908 .00007959 00000-0 48601-3 0 9999

TLE line 2: 2 43767 97.4356 29.5217 0007026 291.1909 68.8570 15.10538254384143

Live tracking on map

Real-time ground track for satellite CORVUS BC4.

In-orbit conjunctions

There are no conjunctions computed for CORVUS BC4, at the moment. Check back to stay up to date, as we update our databases every day.

Go to all conjunctions

Associated space launch

Dedicated rideshare launching payloads into sun-synchronous orbit. Payloads include ORS-6, EU:CROPIS, STPSat-5, BlackSky Global-1 to -4, HawkEye Pathfinder 1-3, Iceye, NEXTSat-1, 2 SkySats, Centauri II, and a Flock of Doves.

CORVUS BC4 was lifted into orbit during the mission ‘Falcon 9 Block 5 | Spaceflight SSO-A’, on board a Falcon 9 space rocket.

The launch took place on Dec. 3, 2018, 6:34 p.m. from Space Launch Complex 4E.

For more information about the launch, click the button.

Launch to space Falcon 9 Block 5 | Spaceflight SSO-A
Falcon 9 Block 5 | Spaceflight SSO-A

Agency: N/A

Status: Launch Successful

Launch date: Dec. 3, 2018, 6:34 p.m. UTC

Rocket: Falcon 9

Launch pad: Space Launch Complex 4E

Location: Vandenberg SFB, CA, USA

...

Latest news about this satellite

There are no fresh news available about this satellite. Check back as we update our databases every day.


Newsletter sign-up

Weekly statistics, charts and insights to help you stay on top of the space industry.